ENT4PU LGIR-EPKT

Flight info

Callsign ENT4PU
Flight time 2h 26m
Altitude 34000
Route EPALO M749 MIL UM749 ATV DCT TALAS DCT LONTA UM749 UDVAR DCT PARAK DCT REDSI/N0438F350 DCT MEBAN
Aircraft B738/M-SDFGHIJ1RWXY/EB1

Departure

Time 2026-05-07 13:50
Airport Heraklion International Nikos Kazantzakis Airport (LGIR)

Arrival

Time 2026-05-07 16:16
Airport Katowice Wojciech Korfanty International Airport (EPKT)
Time Latitude Longitude Altitude Speed Heading
2026-05-07 13:16 35.33768 25.17414 93 ft 0 kts 275°
2026-05-07 13:46 35.33773 25.17393 93 ft 7 kts 300°
2026-05-07 13:46 35.33855 25.17373 90 ft 14 kts
2026-05-07 13:47 35.33925 25.17328 90 ft 13 kts 277°
2026-05-07 13:47 35.33931 25.17219 90 ft 13 kts 275°
2026-05-07 13:47 35.33939 25.17114 89 ft 12 kts 275°
2026-05-07 13:47 35.33946 25.17009 91 ft 12 kts 275°
2026-05-07 13:48 35.33953 25.16905 90 ft 13 kts 275°
2026-05-07 13:48 35.33962 25.16792 91 ft 13 kts 281°
2026-05-07 13:48 35.34002 25.16696 90 ft 13 kts 304°
2026-05-07 13:48 35.34057 25.16663 90 ft 8 kts 39°
2026-05-07 13:49 35.34065 25.16689 91 ft 0 kts 88°
2026-05-07 13:49 35.34064 25.16727 90 ft 25 kts 94°
2026-05-07 13:50 35.34028 25.17258 91 ft 99 kts 94°
2026-05-07 13:50 35.33954 25.18365 93 ft 160 kts 96°
2026-05-07 13:50 35.33853 25.19827 564 ft 176 kts 92°
2026-05-07 13:50 35.33765 25.21298 1455 ft 172 kts 89°
2026-05-07 13:51 35.34228 25.22722 1885 ft 201 kts 45°
2026-05-07 13:51 35.35501 25.23544 2341 ft 217 kts
2026-05-07 13:51 35.36988 25.23305 2906 ft 222 kts 332°
2026-05-07 13:51 35.38035 25.21962 3578 ft 220 kts 294°
2026-05-07 13:52 35.38655 25.20249 4270 ft 223 kts 292°
2026-05-07 13:52 35.39293 25.18477 4934 ft 230 kts 292°
2026-05-07 13:52 35.39974 25.16709 5749 ft 231 kts 303°
2026-05-07 13:52 35.41203 25.15424 6368 ft 243 kts 333°
2026-05-07 13:53 35.42832 25.14586 6647 ft 269 kts 338°
2026-05-07 13:53 35.44609 25.13764 7319 ft 276 kts 339°
2026-05-07 13:53 35.46413 25.12938 8186 ft 277 kts 339°
2026-05-07 13:53 35.48225 25.12102 8998 ft 280 kts 339°
2026-05-07 13:54 35.50057 25.11249 9732 ft 283 kts 339°
2026-05-07 13:54 35.51897 25.10385 10070 ft 284 kts 338°
2026-05-07 13:54 35.53753 25.09510 10145 ft 288 kts 338°
2026-05-07 13:54 35.55667 25.08602 10340 ft 306 kts 338°
2026-05-07 13:55 35.57735 25.07619 10524 ft 330 kts 338°
2026-05-07 13:55 35.59914 25.06582 10991 ft 342 kts 338°
2026-05-07 13:55 35.62157 25.05514 11671 ft 345 kts 338°
2026-05-07 13:55 35.64403 25.04444 12439 ft 347 kts 338°
2026-05-07 13:56 35.66662 25.03366 13180 ft 350 kts 338°
2026-05-07 13:56 35.68940 25.02279 13900 ft 353 kts 337°
2026-05-07 13:56 35.71241 25.01179 14530 ft 356 kts 337°
2026-05-07 13:56 35.73569 25.00075 15146 ft 360 kts 337°
2026-05-07 13:57 35.75923 24.98969 15770 ft 364 kts 337°
2026-05-07 13:57 35.78275 24.97866 16392 ft 368 kts 337°
2026-05-07 13:57 35.80675 24.96740 17007 ft 371 kts 337°
2026-05-07 13:57 35.83095 24.95603 17612 ft 375 kts 336°
2026-05-07 13:58 35.85550 24.94448 18215 ft 379 kts 336°
2026-05-07 13:58 35.88028 24.93281 18756 ft 382 kts 336°
2026-05-07 13:58 35.90515 24.92109 19366 ft 383 kts 336°
2026-05-07 13:58 35.93009 24.90932 19994 ft 383 kts 336°
2026-05-07 13:59 35.95502 24.89756 20594 ft 384 kts 336°
2026-05-07 13:59 35.97998 24.88576 21156 ft 386 kts 336°
2026-05-07 13:59 36.00515 24.87385 21697 ft 388 kts 336°
2026-05-07 13:59 36.03041 24.86190 22232 ft 390 kts 336°
2026-05-07 14:00 36.05580 24.84988 22775 ft 392 kts 336°
2026-05-07 14:00 36.08136 24.83778 23279 ft 394 kts 336°
2026-05-07 14:00 36.10703 24.82562 23777 ft 396 kts 336°
2026-05-07 14:00 36.13281 24.81341 24210 ft 397 kts 335°
2026-05-07 14:01 36.15868 24.80114 24646 ft 398 kts 335°
2026-05-07 14:01 36.18457 24.78885 25069 ft 400 kts 335°
2026-05-07 14:01 36.21023 24.77667 25485 ft 401 kts 335°
2026-05-07 14:01 36.23639 24.76423 25887 ft 403 kts 335°
2026-05-07 14:02 36.26258 24.75178 26284 ft 404 kts 335°
2026-05-07 14:02 36.28892 24.73923 26674 ft 406 kts 335°
2026-05-07 14:02 36.31535 24.72664 27049 ft 408 kts 335°
2026-05-07 14:02 36.34188 24.71400 27405 ft 409 kts 335°
2026-05-07 14:03 36.35991 24.70540 27656 ft 411 kts 335°
2026-05-07 14:03 36.38628 24.69281 28006 ft 412 kts 335°
2026-05-07 14:03 36.41343 24.67984 28366 ft 414 kts 335°
2026-05-07 14:03 36.43998 24.66715 28703 ft 415 kts 335°
2026-05-07 14:04 36.46699 24.65423 29051 ft 417 kts 335°
2026-05-07 14:04 36.49406 24.64127 29464 ft 416 kts 335°
2026-05-07 14:04 36.52099 24.62839 29988 ft 413 kts 334°
2026-05-07 14:04 36.54769 24.61560 30497 ft 409 kts 334°
2026-05-07 14:05 36.57413 24.60293 30924 ft 407 kts 334°
2026-05-07 14:05 36.60047 24.59028 31324 ft 405 kts 334°
2026-05-07 14:05 36.62672 24.57766 31722 ft 403 kts 334°
2026-05-07 14:05 36.65276 24.56513 32132 ft 400 kts 334°
2026-05-07 14:06 36.67862 24.55268 32559 ft 397 kts 334°
2026-05-07 14:06 36.70449 24.54023 32934 ft 395 kts 333°
2026-05-07 14:06 36.73011 24.52788 33264 ft 395 kts 333°
2026-05-07 14:06 36.75521 24.51516 33546 ft 393 kts 330°
2026-05-07 14:07 36.77994 24.50055 33829 ft 392 kts 329°
2026-05-07 14:07 36.80432 24.48547 34116 ft 392 kts 328°
2026-05-07 14:07 36.82884 24.47007 34125 ft 396 kts 328°
2026-05-07 14:08 36.87804 24.43919 34131 ft 394 kts 328°
2026-05-07 14:08 36.92671 24.40891 34128 ft 389 kts 328°
2026-05-07 14:09 36.97509 24.37887 34136 ft 388 kts 328°
2026-05-07 14:09 37.02346 24.34884 34135 ft 388 kts 328°
2026-05-07 14:10 37.07158 24.31894 34127 ft 388 kts 328°
2026-05-07 14:10 37.11988 24.28887 34130 ft 388 kts 328°
2026-05-07 14:11 37.16833 24.25868 34137 ft 389 kts 328°
2026-05-07 14:11 37.21680 24.22843 34124 ft 389 kts 328°
2026-05-07 14:12 37.26538 24.19807 34125 ft 390 kts 328°
2026-05-07 14:12 37.31387 24.16771 34135 ft 390 kts 328°
2026-05-07 14:13 37.36259 24.13717 34120 ft 390 kts 328°
2026-05-07 14:13 37.41124 24.10664 34112 ft 390 kts 328°
2026-05-07 14:14 37.45955 24.07626 34123 ft 390 kts 328°
2026-05-07 14:14 37.50820 24.04564 34116 ft 390 kts 328°
2026-05-07 14:15 37.55670 24.01506 34112 ft 390 kts 328°
2026-05-07 14:15 37.60520 23.98443 34118 ft 390 kts 328°
2026-05-07 14:16 37.65370 23.95377 34115 ft 389 kts 328°
2026-05-07 14:16 37.70214 23.92308 34116 ft 390 kts 327°
2026-05-07 14:17 37.75068 23.89229 34123 ft 390 kts 327°
2026-05-07 14:17 37.79914 23.86151 34131 ft 389 kts 327°
2026-05-07 14:18 37.84752 23.83074 34140 ft 389 kts 327°
2026-05-07 14:18 37.89560 23.80016 34132 ft 389 kts 327°
2026-05-07 14:19 37.94500 23.77164 34142 ft 390 kts 329°
2026-05-07 14:19 37.99483 23.74408 34105 ft 390 kts 329°
2026-05-07 14:20 38.04451 23.71639 34102 ft 389 kts 329°
2026-05-07 14:20 38.09398 23.68853 34103 ft 388 kts 329°
2026-05-07 14:21 38.14340 23.66053 34098 ft 387 kts 329°
2026-05-07 14:21 38.19256 23.63262 34111 ft 387 kts 329°
2026-05-07 14:22 38.24138 23.60483 34097 ft 387 kts 328°
2026-05-07 14:22 38.29053 23.57683 34098 ft 387 kts 328°
2026-05-07 14:23 38.33972 23.54876 34102 ft 387 kts 329°
2026-05-07 14:23 38.38894 23.52063 34101 ft 388 kts 329°
2026-05-07 14:24 38.43840 23.49232 34095 ft 390 kts 329°
2026-05-07 14:24 38.48795 23.46391 34095 ft 391 kts 329°
2026-05-07 14:25 38.53741 23.43552 34093 ft 393 kts 329°
2026-05-07 14:25 38.58728 23.40686 34095 ft 394 kts 329°
2026-05-07 14:26 38.63732 23.37805 34099 ft 394 kts 329°
2026-05-07 14:26 38.68742 23.34916 34097 ft 395 kts 329°
2026-05-07 14:27 38.73764 23.32015 34097 ft 397 kts 329°
2026-05-07 14:27 38.78799 23.29103 34095 ft 397 kts 329°
2026-05-07 14:28 38.83843 23.26182 34096 ft 398 kts 329°
2026-05-07 14:28 38.88890 23.23252 34100 ft 399 kts 329°
2026-05-07 14:29 38.93959 23.20307 34107 ft 399 kts 329°
2026-05-07 14:29 38.99043 23.17348 34100 ft 400 kts 329°
2026-05-07 14:30 39.04092 23.14405 34099 ft 401 kts 329°
2026-05-07 14:30 39.09179 23.11434 34108 ft 402 kts 329°
2026-05-07 14:31 39.14286 23.08447 34111 ft 403 kts 330°
2026-05-07 14:31 39.19394 23.05455 34104 ft 404 kts 330°
2026-05-07 14:32 39.24515 23.02451 34105 ft 405 kts 330°
2026-05-07 14:32 39.29656 22.99430 34108 ft 406 kts 330°
2026-05-07 14:33 39.34776 22.96415 34101 ft 407 kts 330°
2026-05-07 14:33 39.39947 22.93366 34107 ft 409 kts 330°
2026-05-07 14:34 39.45139 22.90300 34100 ft 411 kts 330°
2026-05-07 14:34 39.50355 22.87215 34106 ft 413 kts 330°
2026-05-07 14:35 39.55600 22.84107 34115 ft 415 kts 330°
2026-05-07 14:35 39.60861 22.80985 34106 ft 417 kts 330°
2026-05-07 14:36 39.66121 22.77858 34111 ft 419 kts 330°
2026-05-07 14:36 39.71456 22.74681 34103 ft 420 kts 330°
2026-05-07 14:37 39.76744 22.71528 34113 ft 421 kts 330°
2026-05-07 14:37 39.84743 22.66747 34114 ft 422 kts 331°
2026-05-07 14:38 39.90078 22.63550 34107 ft 422 kts 330°
2026-05-07 14:38 39.95417 22.60347 34106 ft 422 kts 331°
2026-05-07 14:39 40.00755 22.57139 34106 ft 421 kts 331°
2026-05-07 14:39 40.06029 22.53962 34103 ft 421 kts 331°
2026-05-07 14:40 40.11348 22.50754 34112 ft 421 kts 331°
2026-05-07 14:40 40.16675 22.47535 34112 ft 422 kts 331°
2026-05-07 14:41 40.22012 22.44304 34107 ft 423 kts 331°
2026-05-07 14:41 40.27370 22.41054 34111 ft 425 kts 331°
2026-05-07 14:42 40.32743 22.37790 34117 ft 427 kts 331°
2026-05-07 14:42 40.38146 22.34503 34118 ft 429 kts 331°
2026-05-07 14:43 40.43564 22.31200 34118 ft 430 kts 331°
2026-05-07 14:43 40.48966 22.27901 34123 ft 431 kts 331°
2026-05-07 14:44 40.54412 22.24570 34118 ft 432 kts 331°
2026-05-07 14:44 40.59869 22.21225 34119 ft 433 kts 331°
2026-05-07 14:45 40.65332 22.17871 34123 ft 433 kts 331°
2026-05-07 14:45 40.70800 22.14508 34126 ft 434 kts 331°
2026-05-07 14:46 40.76269 22.11138 34128 ft 434 kts 331°
2026-05-07 14:46 40.81732 22.07765 34132 ft 433 kts 331°
2026-05-07 14:47 40.87198 22.04384 34123 ft 433 kts 331°
2026-05-07 14:47 40.91739 22.01571 34136 ft 433 kts 331°
2026-05-07 14:48 40.97196 21.98184 34132 ft 433 kts 331°
2026-05-07 14:48 41.02646 21.94796 34144 ft 432 kts 331°
2026-05-07 14:49 41.08102 21.91432 34119 ft 433 kts 334°
2026-05-07 14:49 41.13769 21.88642 34133 ft 436 kts 337°
2026-05-07 14:50 41.19513 21.86008 34125 ft 437 kts 337°
2026-05-07 14:50 41.25262 21.83341 34128 ft 437 kts 336°
2026-05-07 14:51 41.30956 21.80656 34123 ft 437 kts 336°
2026-05-07 14:51 41.36692 21.77929 34131 ft 438 kts 336°
2026-05-07 14:52 41.42428 21.75196 34123 ft 438 kts 336°
2026-05-07 14:52 41.48159 21.72461 34122 ft 437 kts 336°
2026-05-07 14:53 41.53894 21.69720 34115 ft 437 kts 336°
2026-05-07 14:53 41.59615 21.66981 34126 ft 437 kts 336°
2026-05-07 14:54 41.65345 21.64231 34128 ft 437 kts 336°
2026-05-07 14:54 41.71064 21.61482 34118 ft 437 kts 336°
2026-05-07 14:55 41.76776 21.58731 34102 ft 435 kts 336°
2026-05-07 14:55 41.82475 21.55981 34123 ft 435 kts 335°
2026-05-07 14:56 41.88176 21.53225 34107 ft 435 kts 335°
2026-05-07 14:56 41.93880 21.50462 34105 ft 436 kts 335°
2026-05-07 14:57 41.99580 21.47695 34107 ft 436 kts 335°
2026-05-07 14:57 42.05252 21.44937 34107 ft 436 kts 335°
2026-05-07 14:58 42.10962 21.42155 34108 ft 436 kts 335°
2026-05-07 14:58 42.16686 21.39401 34113 ft 437 kts 337°
2026-05-07 14:59 42.22556 21.37134 34118 ft 440 kts 340°
2026-05-07 14:59 42.28499 21.35038 34107 ft 441 kts 340°
2026-05-07 15:00 42.34426 21.32909 34103 ft 440 kts 340°
2026-05-07 15:00 42.40339 21.30739 34101 ft 440 kts 340°
2026-05-07 15:01 42.46197 21.28569 34096 ft 439 kts 340°
2026-05-07 15:01 42.52080 21.26383 34111 ft 438 kts 340°
2026-05-07 15:02 42.57974 21.24190 34102 ft 439 kts 340°
2026-05-07 15:02 42.63865 21.21995 34101 ft 439 kts 340°
2026-05-07 15:03 42.69763 21.19793 34095 ft 440 kts 341°
2026-05-07 15:03 42.75678 21.17581 34087 ft 441 kts 341°
2026-05-07 15:04 42.81599 21.15362 34087 ft 442 kts 341°
2026-05-07 15:04 42.87539 21.13131 34077 ft 443 kts 341°
2026-05-07 15:05 42.93497 21.10890 34082 ft 444 kts 341°
2026-05-07 15:05 42.99460 21.08642 34068 ft 445 kts 341°
2026-05-07 15:06 43.05385 21.06403 34086 ft 445 kts 341°
2026-05-07 15:06 43.11375 21.04137 34081 ft 447 kts 341°
2026-05-07 15:07 43.17441 21.02187 34061 ft 449 kts 345°
2026-05-07 15:07 43.23571 21.00444 34062 ft 449 kts 345°
2026-05-07 15:08 43.29685 20.98693 34068 ft 450 kts 345°
2026-05-07 15:08 43.35808 20.96900 34059 ft 449 kts 344°
2026-05-07 15:09 43.41915 20.95087 34060 ft 449 kts 344°
2026-05-07 15:09 43.48042 20.93261 34046 ft 451 kts 344°
2026-05-07 15:10 43.54137 20.91442 34046 ft 451 kts 344°
2026-05-07 15:10 43.60271 20.89608 34028 ft 451 kts 344°
2026-05-07 15:11 43.66410 20.87769 34035 ft 451 kts 344°
2026-05-07 15:11 43.72560 20.85923 34031 ft 451 kts 344°
2026-05-07 15:12 43.78694 20.84078 34027 ft 451 kts 344°
2026-05-07 15:12 43.84827 20.82230 34031 ft 451 kts 344°
2026-05-07 15:13 43.90961 20.80376 34016 ft 451 kts 344°
2026-05-07 15:13 43.97060 20.78531 34031 ft 450 kts 344°
2026-05-07 15:14 44.03180 20.76674 34024 ft 450 kts 344°
2026-05-07 15:14 44.09290 20.74817 34030 ft 450 kts 344°
2026-05-07 15:15 44.15417 20.72950 34037 ft 450 kts 344°
2026-05-07 15:15 44.21543 20.71080 34032 ft 451 kts 344°
2026-05-07 15:16 44.27683 20.69201 34034 ft 451 kts 344°
2026-05-07 15:16 44.33824 20.67318 34036 ft 452 kts 344°
2026-05-07 15:17 44.39962 20.65432 34037 ft 452 kts 344°
2026-05-07 15:17 44.46112 20.63538 34035 ft 453 kts 344°
2026-05-07 15:18 44.52290 20.61632 34027 ft 453 kts 344°
2026-05-07 15:18 44.58451 20.59727 34013 ft 454 kts 344°
2026-05-07 15:19 44.64614 20.57817 34026 ft 454 kts 344°
2026-05-07 15:19 44.70780 20.55902 34026 ft 454 kts 344°
2026-05-07 15:20 44.76910 20.53994 34034 ft 453 kts 344°
2026-05-07 15:20 44.83076 20.52070 34026 ft 453 kts 344°
2026-05-07 15:21 44.89239 20.50143 34028 ft 453 kts 344°
2026-05-07 15:21 44.95411 20.48210 34020 ft 453 kts 344°
2026-05-07 15:22 45.01564 20.46277 34019 ft 453 kts 344°
2026-05-07 15:22 45.07723 20.44339 34019 ft 454 kts 344°
2026-05-07 15:23 45.13889 20.42394 34015 ft 454 kts 344°
2026-05-07 15:23 45.20068 20.40441 34025 ft 454 kts 343°
2026-05-07 15:24 45.26244 20.38484 34010 ft 455 kts 343°
2026-05-07 15:24 45.32422 20.36523 34017 ft 455 kts 343°
2026-05-07 15:25 45.38600 20.34557 34013 ft 455 kts 343°
2026-05-07 15:25 45.44783 20.32585 34016 ft 455 kts 343°
2026-05-07 15:26 45.50960 20.30611 34013 ft 455 kts 343°
2026-05-07 15:26 45.57104 20.28642 34009 ft 455 kts 343°
2026-05-07 15:27 45.63279 20.26660 34010 ft 455 kts 343°
2026-05-07 15:27 45.69449 20.24674 34009 ft 454 kts 343°
2026-05-07 15:28 45.75628 20.22681 34010 ft 454 kts 343°
2026-05-07 15:28 45.81793 20.20688 34009 ft 454 kts 343°
2026-05-07 15:29 45.87961 20.18689 34010 ft 454 kts 343°
2026-05-07 15:29 45.94126 20.16687 34011 ft 454 kts 343°
2026-05-07 15:30 46.00249 20.14693 34011 ft 454 kts 343°
2026-05-07 15:30 46.05364 20.13025 34014 ft 454 kts 343°
2026-05-07 15:31 46.11530 20.11009 34012 ft 454 kts 343°
2026-05-07 15:31 46.17711 20.09109 34004 ft 456 kts 348°
2026-05-07 15:32 46.24042 20.08130 34016 ft 458 kts 351°
2026-05-07 15:32 46.30403 20.07361 34020 ft 458 kts 351°
2026-05-07 15:33 46.36754 20.06546 34012 ft 458 kts 351°
2026-05-07 15:33 46.43057 20.05680 34037 ft 458 kts 350°
2026-05-07 15:34 46.49417 20.04781 34021 ft 458 kts 350°
2026-05-07 15:34 46.55767 20.03878 34015 ft 459 kts 350°
2026-05-07 15:35 46.62133 20.02973 34021 ft 459 kts 350°
2026-05-07 15:35 46.68496 20.02068 34020 ft 459 kts 350°
2026-05-07 15:36 46.74817 20.01167 34023 ft 459 kts 350°
2026-05-07 15:36 46.81181 20.00257 34023 ft 459 kts 350°
2026-05-07 15:37 46.87539 19.99347 34024 ft 459 kts 350°
2026-05-07 15:37 46.93901 19.98433 34020 ft 460 kts 349°
2026-05-07 15:38 47.00269 19.97516 34026 ft 460 kts 349°
2026-05-07 15:38 47.06641 19.96597 34017 ft 460 kts 349°
2026-05-07 15:39 47.12996 19.95678 34028 ft 461 kts 349°
2026-05-07 15:39 47.19389 19.94751 34015 ft 462 kts 349°
2026-05-07 15:40 47.25792 19.93820 34018 ft 463 kts 349°
2026-05-07 15:40 47.32207 19.92886 34009 ft 463 kts 349°
2026-05-07 15:41 47.38632 19.91948 34009 ft 463 kts 349°
2026-05-07 15:41 47.45045 19.91009 34003 ft 463 kts 349°
2026-05-07 15:42 47.51474 19.90066 34008 ft 464 kts 349°
2026-05-07 15:42 47.57899 19.89120 33999 ft 464 kts 349°
2026-05-07 15:43 47.64294 19.88177 34005 ft 465 kts 349°
2026-05-07 15:43 47.70737 19.87224 34008 ft 465 kts 349°
2026-05-07 15:44 47.77197 19.86266 34014 ft 467 kts 349°
2026-05-07 15:44 47.83683 19.85302 34015 ft 469 kts 349°
2026-05-07 15:45 47.90192 19.84333 33999 ft 469 kts 349°
2026-05-07 15:45 47.96691 19.83364 34006 ft 469 kts 349°
2026-05-07 15:46 48.06393 19.81911 34001 ft 468 kts 349°
2026-05-07 15:47 48.12877 19.80936 34000 ft 468 kts 349°
2026-05-07 15:47 48.19362 19.79958 34020 ft 469 kts 349°
2026-05-07 15:48 48.25870 19.78974 34020 ft 470 kts 349°
2026-05-07 15:48 48.32381 19.77990 33724 ft 468 kts 349°
2026-05-07 15:48 48.35616 19.77501 33360 ft 463 kts 349°
2026-05-07 15:49 48.38807 19.77019 32961 ft 458 kts 349°
2026-05-07 15:49 48.41958 19.76542 32555 ft 454 kts 349°
2026-05-07 15:49 48.45093 19.76065 32149 ft 450 kts 349°
2026-05-07 15:49 48.48199 19.75592 31756 ft 447 kts 349°
2026-05-07 15:50 48.51282 19.75121 31352 ft 444 kts 349°
2026-05-07 15:50 48.54347 19.74651 30953 ft 440 kts 349°
2026-05-07 15:50 48.57378 19.74187 30573 ft 437 kts 349°
2026-05-07 15:50 48.60406 19.73722 30182 ft 434 kts 349°
2026-05-07 15:51 48.63393 19.73264 29759 ft 431 kts 349°
2026-05-07 15:51 48.66372 19.72806 29324 ft 427 kts 349°
2026-05-07 15:51 48.69282 19.72359 28926 ft 423 kts 349°
2026-05-07 15:51 48.72205 19.71908 28534 ft 419 kts 349°
2026-05-07 15:52 48.75094 19.71463 28116 ft 416 kts 349°
2026-05-07 15:52 48.77967 19.71019 27721 ft 413 kts 349°
2026-05-07 15:52 48.80819 19.70579 27332 ft 410 kts 350°
2026-05-07 15:52 48.83643 19.70141 26942 ft 407 kts 350°
2026-05-07 15:53 48.86452 19.69706 26554 ft 405 kts 350°
2026-05-07 15:53 48.89242 19.69272 26159 ft 403 kts 350°
2026-05-07 15:53 48.92019 19.68841 25783 ft 400 kts 350°
2026-05-07 15:53 48.94783 19.68411 25377 ft 397 kts 351°
2026-05-07 15:54 48.97518 19.67986 25023 ft 393 kts 351°
2026-05-07 15:54 49.00236 19.67562 24662 ft 392 kts 351°
2026-05-07 15:54 49.02952 19.67138 24277 ft 391 kts 351°
2026-05-07 15:54 49.05649 19.66717 23900 ft 389 kts 351°
2026-05-07 15:55 49.08336 19.66297 23496 ft 388 kts 351°
2026-05-07 15:55 49.11025 19.65876 23076 ft 388 kts 351°
2026-05-07 15:55 49.13701 19.65457 22641 ft 386 kts 351°
2026-05-07 15:55 49.16361 19.65040 22271 ft 383 kts 351°
2026-05-07 15:56 49.19011 19.64625 21882 ft 381 kts 351°
2026-05-07 15:56 49.21641 19.64212 21507 ft 378 kts 351°
2026-05-07 15:56 49.24226 19.63886 21184 ft 375 kts 356°
2026-05-07 15:56 49.26843 19.63884 20954 ft 370 kts 359°
2026-05-07 15:57 49.29388 19.64010 20609 ft 371 kts
2026-05-07 15:57 49.31998 19.64158 20249 ft 371 kts
2026-05-07 15:57 49.34579 19.64286 19881 ft 372 kts
2026-05-07 15:57 49.37141 19.64390 19526 ft 372 kts 360°
2026-05-07 15:58 49.39730 19.64480 19135 ft 371 kts 360°
2026-05-07 15:58 49.42316 19.64565 18768 ft 370 kts 360°
2026-05-07 15:58 49.44887 19.64638 18384 ft 370 kts 358°
2026-05-07 15:58 49.47436 19.64290 17953 ft 367 kts 349°
2026-05-07 15:59 49.49947 19.63658 17562 ft 365 kts 348°
2026-05-07 15:59 49.52438 19.62997 17170 ft 362 kts 348°
2026-05-07 15:59 49.54918 19.62336 16800 ft 360 kts 348°
2026-05-07 15:59 49.57385 19.61683 16430 ft 358 kts 348°
2026-05-07 16:00 49.59830 19.61043 16070 ft 356 kts 348°
2026-05-07 16:00 49.62270 19.60410 15715 ft 354 kts 348°
2026-05-07 16:00 49.64691 19.59785 15345 ft 351 kts 348°
2026-05-07 16:00 49.67061 19.59177 14990 ft 349 kts 348°
2026-05-07 16:01 49.69457 19.58562 14640 ft 347 kts 349°
2026-05-07 16:01 49.71836 19.57951 14286 ft 345 kts 349°
2026-05-07 16:01 49.74191 19.57346 13933 ft 343 kts 349°
2026-05-07 16:01 49.76544 19.56741 13562 ft 341 kts 349°
2026-05-07 16:02 49.78630 19.56205 13223 ft 340 kts 348°
2026-05-07 16:02 49.80955 19.55606 12855 ft 337 kts 348°
2026-05-07 16:02 49.83256 19.55013 12503 ft 335 kts 348°
2026-05-07 16:02 49.85550 19.54422 12152 ft 332 kts 348°
2026-05-07 16:03 49.87820 19.53836 11813 ft 330 kts 348°
2026-05-07 16:03 49.90087 19.53250 11472 ft 328 kts 348°
2026-05-07 16:03 49.92326 19.52671 11132 ft 326 kts 348°
2026-05-07 16:03 49.94561 19.52093 10797 ft 324 kts 348°
2026-05-07 16:04 49.96754 19.51525 10466 ft 322 kts 348°
2026-05-07 16:04 49.98984 19.50947 10218 ft 317 kts 348°
2026-05-07 16:04 50.01124 19.50393 10078 ft 308 kts 348°
2026-05-07 16:04 50.03219 19.49849 9944 ft 300 kts 348°
2026-05-07 16:05 50.05210 19.49333 9872 ft 289 kts 348°
2026-05-07 16:05 50.07253 19.48800 9388 ft 294 kts 348°
2026-05-07 16:05 50.09239 19.48281 9091 ft 292 kts 348°
2026-05-07 16:05 50.11229 19.47762 8788 ft 288 kts 348°
2026-05-07 16:06 50.13200 19.47247 8498 ft 287 kts 348°
2026-05-07 16:06 50.15162 19.46734 8216 ft 285 kts 348°
2026-05-07 16:06 50.17104 19.46226 7934 ft 283 kts 348°
2026-05-07 16:06 50.19049 19.45717 7662 ft 281 kts 347°
2026-05-07 16:07 50.20972 19.45214 7388 ft 280 kts 347°
2026-05-07 16:07 50.22681 19.44766 7134 ft 277 kts 348°
2026-05-07 16:07 50.24559 19.44274 6848 ft 268 kts 347°
2026-05-07 16:07 50.26354 19.43805 6616 ft 259 kts 347°
2026-05-07 16:08 50.28096 19.43378 6419 ft 249 kts 353°
2026-05-07 16:08 50.29785 19.43838 6148 ft 246 kts 17°
2026-05-07 16:08 50.31400 19.44676 5894 ft 242 kts 14°
2026-05-07 16:08 50.32990 19.45431 5625 ft 236 kts 14°
2026-05-07 16:09 50.34559 19.46128 5374 ft 233 kts 13°
2026-05-07 16:09 50.36091 19.46773 5131 ft 230 kts 12°
2026-05-07 16:09 50.37636 19.47403 5024 ft 223 kts 11°
2026-05-07 16:09 50.39102 19.47988 5005 ft 217 kts 12°
2026-05-07 16:10 50.40589 19.48575 5034 ft 227 kts 12°
2026-05-07 16:10 50.42175 19.49197 5016 ft 233 kts 11°
2026-05-07 16:10 50.43748 19.49754 5016 ft 239 kts
2026-05-07 16:10 50.45371 19.49330 5014 ft 237 kts 331°
2026-05-07 16:11 50.46648 19.47740 4917 ft 238 kts 303°
2026-05-07 16:11 50.47338 19.45399 4680 ft 236 kts 279°
2026-05-07 16:11 50.47493 19.42864 4452 ft 233 kts 270°
2026-05-07 16:11 50.47521 19.40327 4215 ft 230 kts 269°
2026-05-07 16:12 50.47545 19.37826 4006 ft 228 kts 270°
2026-05-07 16:12 50.47573 19.35362 3790 ft 221 kts 269°
2026-05-07 16:12 50.47579 19.33014 3591 ft 208 kts 269°
2026-05-07 16:12 50.47579 19.30825 3403 ft 194 kts 269°
2026-05-07 16:13 50.47578 19.28784 3209 ft 180 kts 269°
2026-05-07 16:13 50.47578 19.27515 3110 ft 172 kts 269°
2026-05-07 16:13 50.47578 19.25673 3006 ft 170 kts 269°
2026-05-07 16:13 50.47579 19.23778 2773 ft 172 kts 270°
2026-05-07 16:14 50.47580 19.21965 2544 ft 161 kts 270°
2026-05-07 16:14 50.47582 19.20288 2361 ft 150 kts 270°
2026-05-07 16:14 50.47583 19.18665 2151 ft 147 kts 270°
2026-05-07 16:14 50.47585 19.17074 1941 ft 145 kts 270°
2026-05-07 16:15 50.47587 19.15466 1754 ft 150 kts 270°
2026-05-07 16:15 50.47590 19.13818 1533 ft 152 kts 271°
2026-05-07 16:15 50.47591 19.12157 1308 ft 153 kts 271°
2026-05-07 16:15 50.47597 19.10486 1089 ft 153 kts 272°
2026-05-07 16:16 50.47595 19.08858 989 ft 138 kts 273°
2026-05-07 16:16 50.47602 19.07687 979 ft 76 kts 270°
2026-05-07 16:16 50.47566 19.07073 976 ft 50 kts 248°
2026-05-07 16:16 50.47509 19.06912 974 ft 0 kts 243°
2026-05-07 16:17 50.47508 19.06910 974 ft 0 kts 242°
2026-05-07 16:17 50.47507 19.06908 974 ft 1 kts 242°
2026-05-07 16:17 50.47484 19.06839 975 ft 11 kts 241°
2026-05-07 16:17 50.47444 19.06727 975 ft 12 kts 239°
2026-05-07 16:18 50.47393 19.06633 972 ft 11 kts 206°
2026-05-07 16:18 50.47317 19.06624 971 ft 11 kts 180°
2026-05-07 16:18 50.47248 19.06658 971 ft 11 kts 124°
2026-05-07 16:18 50.47236 19.06772 978 ft 11 kts 90°
2026-05-07 16:19 50.47235 19.06886 981 ft 10 kts 90°
2026-05-07 16:19 50.47235 19.06996 982 ft 10 kts 89°
2026-05-07 16:19 50.47235 19.07103 983 ft 10 kts 90°
2026-05-07 16:19 50.47235 19.07208 981 ft 9 kts 90°
2026-05-07 16:20 50.47233 19.07278 978 ft 0 kts 105°
2026-05-07 16:20 50.47226 19.07289 982 ft 1 kts 143°
2026-05-07 16:20 50.47225 19.07309 979 ft 3 kts 78°
2026-05-07 16:20 50.47233 19.07376 981 ft 10 kts 80°
2026-05-07 16:21 50.47235 19.07522 980 ft 16 kts 90°
2026-05-07 16:21 50.47234 19.07704 985 ft 16 kts 90°
2026-05-07 16:21 50.47230 19.07860 987 ft 8 kts 119°
2026-05-07 16:21 50.47186 19.07871 982 ft 5 kts 181°
2026-05-07 16:22 50.47156 19.07871 980 ft 3 kts 180°
2026-05-07 16:22 50.47142 19.07870 985 ft 0 kts 180°